Date String (YYYY-MM-DD hh:mm:ss) UTC,Instrument flags,absolute air pressure of the measurement (hPa),sample flow rate (lpm),inlet stack bypass flow (lpm),air temperature of the measurement (°C),ambient temperature measured by the external sensor (°C),aerosol sample conditioner tube jacket temperature (°C),OPC LED temperature (°C),internal box temperature (°C),relative humidity of the measurement (%),span deviation,mass concentration of particles derived from Lorenz-Mie calculation of OPC scattering (μg/m³),mass concentration of particles derived from Lorenz-Mie calculation of OPC scattering (μg/m³),mass concentration of particles derived from Lorenz-Mie calculation of OPC scattering (μg/m³)
DateTimeUTC,F1_M11,P_M11,Q1_M11,Q2_M11,T1_M11,T2_M11,T3_M11,T4_M11,T5_M11,U1_M11,ZSPAN_M11,X0_M11,X2_M11,X1_M11
2024-03-21 06:00:00,SystemResetWarning,0826.1,4.99,000.00,023.2,022.3,000.0,031.9,025.0,14.2,0000.0,0009.10,0003.95,0003.46
2024-03-21 06:01:00,SystemResetWarning,0826.1,4.99,000.00,023.2,022.3,000.0,031.9,025.0,14.3,0000.0,0008.98,0003.95,0003.45
2024-03-21 06:02:00,SystemResetWarning,0826.1,5.00,000.00,023.2,022.3,000.0,031.9,025.0,14.2,0000.0,0008.42,0003.95,0003.44
2024-03-21 06:03:00,SystemResetWarning,0826.0,5.01,000.00,023.2,022.3,000.0,031.9,025.0,14.2,0000.0,0008.14,0003.90,0003.40
2024-03-21 06:04:00,SystemResetWarning,0826.0,5.01,000.00,023.2,022.3,000.0,031.9,025.0,14.1,0000.0,0007.64,0003.84,0003.35
2024-03-21 06:05:00,SystemResetWarning,0826.0,5.00,000.00,023.1,022.3,000.0,031.8,025.0,13.9,0000.0,0007.57,0003.79,0003.30
2024-03-21 06:06:00,SystemResetWarning,0826.0,4.99,000.00,023.1,022.2,000.0,031.8,025.0,13.9,0000.0,0007.79,0003.72,0003.24
2024-03-21 06:07:00,SystemResetWarning,0826.0,4.99,000.00,023.1,022.2,000.0,031.8,025.0,13.5,0000.0,0008.77,0003.68,0003.20
2024-03-21 06:08:00,SystemResetWarning,0826.0,4.99,000.00,023.1,022.2,000.0,031.8,025.0,13.6,0000.0,0008.94,0003.69,0003.17
2024-03-21 06:09:00,SystemResetWarning,0826.0,5.01,000.00,023.1,022.2,000.0,031.8,024.9,13.8,0000.0,0008.80,0003.68,0003.14
2024-03-21 06:10:00,SystemResetWarning,0826.0,5.01,000.00,023.1,022.2,000.0,031.8,024.9,13.9,0000.0,0008.93,0003.69,0003.13
2024-03-21 06:11:00,SystemResetWarning,0826.0,4.99,000.00,023.1,022.2,000.0,031.8,024.9,13.8,0000.0,0009.34,0003.72,0003.13
2024-03-21 06:12:00,SystemResetWarning,0826.0,5.00,000.00,023.1,022.2,000.0,031.8,024.9,13.8,0000.0,0009.30,0003.69,0003.09
2024-03-21 06:13:00,SystemResetWarning,0826.0,5.01,000.00,023.1,022.2,000.0,031.8,024.9,14.1,0000.0,0009.25,0003.64,0003.02
2024-03-21 06:14:00,SystemResetWarning,0826.0,5.01,000.00,023.0,022.2,000.0,031.8,024.9,14.1,0000.0,0009.24,0003.62,0003.00
2024-03-21 06:15:00,SystemResetWarning,0826.0,5.00,000.00,023.0,022.2,000.0,031.7,024.9,14.2,0000.0,0009.22,0003.61,0003.01
2024-03-21 06:16:00,SystemResetWarning,0826.0,5.01,000.00,023.0,022.2,000.0,031.7,024.9,14.1,0000.0,0009.39,0003.64,0003.03
2024-03-21 06:17:00,SystemResetWarning,0826.0,5.00,000.00,023.0,022.1,000.0,031.7,024.9,14.1,0000.0,0009.21,0003.65,0003.05
2024-03-21 06:18:00,SystemResetWarning,0826.0,5.00,000.00,023.0,022.1,000.0,031.7,024.9,14.0,0000.0,0008.18,0003.66,0003.04
2024-03-21 06:19:00,SystemResetWarning,0826.0,5.00,000.00,023.0,022.1,000.0,031.7,024.9,14.0,0000.0,0008.08,0003.60,0003.00
2024-03-21 06:20:00,SystemResetWarning,0826.0,5.00,000.00,023.0,022.1,000.0,031.7,024.9,14.1,0000.0,0007.68,0003.54,0002.94
2024-03-21 06:21:00,SystemResetWarning,0826.0,5.00,000.00,023.0,022.1,000.0,031.7,024.9,13.9,0000.0,0007.85,0003.48,0002.88
2024-03-21 06:22:00,SystemResetWarning,0825.9,5.00,000.00,023.0,022.1,000.0,031.7,024.8,14.0,0000.0,0008.34,0003.46,0002.86
2024-03-21 06:23:00,SystemResetWarning,0825.9,4.99,000.00,023.0,022.1,000.0,031.7,024.8,14.1,0000.0,0008.81,0003.53,0002.96
2024-03-21 06:24:00,SystemResetWarning,0825.9,4.99,000.00,022.9,022.1,000.0,031.6,024.8,14.1,0000.0,0009.10,0003.68,0003.12
2024-03-21 06:25:00,SystemResetWarning,0825.9,5.00,000.00,022.9,022.1,000.0,031.6,024.8,14.1,0000.0,0009.42,0003.85,0003.22
2024-03-21 06:26:00,SystemResetWarning,0825.9,4.99,000.00,022.9,022.1,000.0,031.6,024.8,14.2,0000.0,0009.62,0003.95,0003.31
2024-03-21 06:27:00,SystemResetWarning,0825.9,5.00,000.00,022.9,022.0,000.0,031.6,024.8,14.3,0000.0,0010.03,0003.99,0003.35
2024-03-21 06:28:00,SystemResetWarning,0825.9,5.01,000.00,022.9,022.0,000.0,031.6,024.8,14.2,0000.0,0010.92,0004.06,0003.40
2024-03-21 06:29:00,SystemResetWarning,0825.9,5.01,000.00,022.9,022.0,000.0,031.6,024.8,14.3,0000.0,0011.51,0004.12,0003.47
2024-03-21 06:30:00,SystemResetWarning,0825.9,4.99,000.00,022.9,022.0,000.0,031.6,024.8,14.4,0000.0,0011.72,0004.23,0003.57
2024-03-21 06:31:00,SystemResetWarning,0825.9,4.99,000.00,022.9,022.0,000.0,031.6,024.8,14.5,0000.0,0012.82,0004.40,0003.70
2024-03-21 06:32:00,SystemResetWarning,0825.9,5.00,000.00,022.9,022.0,000.0,031.6,024.7,14.6,0000.0,0013.10,0004.56,0003.83
2024-03-21 06:33:00,SystemResetWarning,0825.9,5.01,000.00,022.8,022.0,000.0,031.6,024.7,14.6,0000.0,0013.39,0004.64,0003.91
2024-03-21 06:34:00,SystemResetWarning,0825.9,5.01,000.00,022.8,022.0,000.0,031.5,024.7,14.4,0000.0,0013.49,0004.67,0003.97
2024-03-21 06:35:00,SystemResetWarning,0825.9,5.00,000.00,022.8,022.0,000.0,031.5,024.7,14.2,0000.0,0013.78,0004.66,0003.98
2024-03-21 06:36:00,SystemResetWarning,0825.9,4.99,000.00,022.8,022.0,000.0,031.5,024.7,14.4,0000.0,0014.20,0004.56,0003.96
2024-03-21 06:37:00,SystemResetWarning,0826.0,4.99,000.00,022.8,022.0,000.0,031.5,024.7,14.7,0000.0,0014.55,0004.49,0003.92
2024-03-21 06:38:00,SystemResetWarning,0825.9,5.01,000.00,022.8,022.0,000.0,031.5,024.7,14.6,0000.0,0014.66,0004.54,0003.97
2024-03-21 06:39:00,SystemResetWarning,0825.9,5.01,000.00,022.8,021.9,000.0,031.5,024.7,14.5,0000.0,0015.40,0004.66,0004.05
2024-03-21 06:40:00,SystemResetWarning,0825.9,5.00,000.00,022.8,021.9,000.0,031.5,024.7,14.8,0000.0,0015.12,0004.69,0004.09
2024-03-21 06:41:00,SystemResetWarning,0825.9,5.00,000.00,022.8,021.9,000.0,031.5,024.7,14.9,0000.0,0014.99,0004.72,0004.12
2024-03-21 06:42:00,SystemResetWarning,0825.9,4.99,000.00,022.8,021.9,000.0,031.5,024.6,14.5,0000.0,0014.32,0004.75,0004.13
2024-03-21 06:43:00,SystemResetWarning,0825.9,5.00,000.00,022.8,021.9,000.0,031.4,024.6,14.3,0000.0,0014.43,0004.75,0004.13
2024-03-21 06:44:00,SystemResetWarning,0825.8,4.99,000.00,022.8,021.9,000.0,031.4,024.6,14.2,0000.0,0013.59,0004.77,0004.15
2024-03-21 06:45:00,SystemResetWarning,0825.9,4.99,000.00,022.8,021.9,000.0,031.4,024.6,14.7,0000.0,0013.80,0004.82,0004.18
2024-03-21 06:46:00,SystemResetWarning,0825.9,5.00,000.00,022.8,021.9,000.0,031.4,024.6,14.6,0000.0,0013.52,0004.87,0004.23
2024-03-21 06:47:00,SystemResetWarning,0825.9,5.00,000.00,022.7,021.9,000.0,031.4,024.6,14.6,0000.0,0012.88,0004.89,0004.25
2024-03-21 06:48:00,SystemResetWarning,0825.9,5.01,000.00,022.7,021.9,000.0,031.4,024.6,14.7,0000.0,0013.19,0004.96,0004.27
2024-03-21 06:49:00,SystemResetWarning,0825.9,5.00,000.00,022.7,021.8,000.0,031.4,024.6,15.2,0002.2,0013.15,0005.08,0004.36
2024-03-21 06:50:00,SystemResetWarning,0825.9,4.99,000.00,022.7,021.8,000.0,031.4,024.6,15.7,0004.4,0012.91,0005.24,0004.51
2024-03-21 06:51:00,SystemResetWarning,0825.9,5.00,000.00,022.7,021.8,000.0,031.4,024.6,15.8,0004.4,0013.19,0005.48,0004.71
2024-03-21 06:52:00,SystemResetWarning,0825.9,5.00,000.00,022.7,021.8,000.0,031.4,024.6,16.1,0004.1,0013.50,0005.69,0004.91
2024-03-21 06:53:00,SystemResetWarning,0825.9,5.01,000.00,022.7,021.8,000.0,031.4,024.6,15.7,0003.6,0013.85,0005.89,0005.09
2024-03-21 06:54:00,SystemResetWarning,0825.9,5.00,000.00,022.7,021.8,000.0,031.4,024.6,14.8,0000.3,0013.74,0005.87,0005.11
2024-03-21 06:55:00,SystemResetWarning,0825.9,4.99,000.00,022.7,021.8,000.0,031.3,024.5,14.8,0000.0,0013.31,0005.83,0005.07
2024-03-21 06:56:00,SystemResetWarning,0825.9,4.99,000.00,022.7,021.8,000.0,031.3,024.5,14.5,0000.0,0012.77,0005.81,0005.01
2024-03-21 06:57:00,SystemResetWarning,0825.9,5.01,000.00,022.6,021.8,000.0,031.3,024.5,14.2,0000.0,0012.47,0005.78,0004.93
2024-03-21 06:58:00,SystemResetWarning,0825.8,5.01,000.00,022.6,021.8,000.0,031.3,024.5,14.3,0000.0,0013.14,0005.78,0004.91
2024-03-21 06:59:00,SystemResetWarning,0825.8,5.00,000.00,022.6,021.8,000.0,031.3,024.5,14.6,0000.0,0013.27,0005.84,0004.98
